Location: Le Rocchette
(44.3500°N, 7.8333°E)
Time: 23:49:51
(UTC+00:00)

Cosmos 1802 Rocket - Pass Details

Date: 17 November 2019
Orbit: 953 x 1012 km, 82.9° (Epoch: 12 December)

Event Time Altitude Azimuth Distance (km) Brightness Sun altitude
Rises 04:54:39 0° 192° (SSW) 3,731 7.0 -16.4°
Reaches altitude 10° 04:57:11 10° 195° (SSW) 2,785 6.4 -15.9°
Maximum altitude 05:03:35 72° 280° (W) 1,061 4.0 -14.8°
Drops below altitude 10° 05:10:01 10° 4° (N) 2,791 6.3 -13.7°
Sets 05:12:34 0° 7° (N) 3,738 7.0 -13.3°
